GW2464 Weather Reports


Display with metric or nautical units.
time (UTC)temp
F
wind
direction
speed
MPH
gust
MPH
rain 1hr
in
rain 24hr
in
rain mn
in
humidity
%
barometer
mb
20260831005327 66 17 0.0 0.0 0.00 0.00 0.00 96 1021.7
20260831004822 66 20 0.0 0.0 0.00 0.00 0.00 95 1021.4
20260831004318 66 25 0.0 0.0 0.00 0.00 0.00 96 1021.7
20260831003814 65 18 0.0 0.0 0.00 0.00 0.00 96 1021.4
20260831003310 65 15 0.0 0.0 0.00 0.00 0.00 97 1021.1
20260831002809 65 24 0.0 0.0 0.00 0.00 0.00 97 1021.1
20260831002308 65 18 0.0 0.0 0.00 0.00 0.00 97 1021.3
20260831001804 65 13 0.0 0.0 0.00 0.00 0.00 98 1021.0
20260831001259 66 19 0.0 0.0 0.00 0.00 0.00 98 1021.1
20260831000756 66 21 0.0 0.0 0.00 0.00 0.00 97 1020.9
20260831000251 66 4 0.0 0.0 0.00 0.00 0.00 97 1020.9
20260830235749 66 16 0.0 0.0 0.00 0.00 0.00 97 1020.8
20260830235244 66 14 0.0 0.0 0.00 0.00 0.00 96 1021.0
20260830234739 66 14 0.0 0.0 0.00 0.00 0.00 95 1020.6
20260830234235 66 9 0.0 0.0 0.00 0.00 0.00 96 1020.8
20260830233731 66 9 0.0 0.0 0.00 0.00 0.00 95 1020.8
20260830233226 66 27 0.0 0.0 0.00 0.00 0.00 96 1020.6
20260830232721 66 21 0.0 0.0 0.00 0.00 0.00 95 1020.6
20260830232217 66 16 0.0 0.0 0.00 0.00 0.00 95 1020.8
20260830231714 66 42 0.0 0.0 0.00 0.00 0.00 96 1020.5
20260830231213 66 10 0.0 0.0 0.00 0.00 0.00 95 1020.9
20260830230708 67 15 0.0 0.0 0.00 0.00 0.00 95 1020.6
20260830230203 67 28 0.0 0.0 0.00 0.00 0.00 95 1020.8
20260830225657 67 23 0.0 0.0 0.00 0.00 0.00 94 1021.0
20260830225152 67 28 0.0 0.0 0.00 0.00 0.00 94 1020.8
20260830224651 67 41 1.0 1.0 0.00 0.00 0.00 93 1020.9
20260830224147 67 23 0.0 0.0 0.00 0.00 0.00 93 1020.8
20260830223643 68 6 0.0 0.0 0.00 0.00 0.00 93 1020.9
20260830223138 68 9 0.0 0.0 0.00 0.00 0.00 92 1020.7
20260830222633 68 33 1.0 1.0 0.00 0.00 0.00 93 1020.8
20260830222128 68 24 0.0 0.0 0.00 0.00 0.00 93 1020.8
20260830221623 68 13 0.0 0.0 0.00 0.00 0.00 92 1020.9
20260830221114 68 354 0.0 1.0 0.00 0.00 0.00 93 1021.0
20260830220610 68 333 1.0 1.0 0.00 0.00 0.00 92 1021.0
20260830220108 68 99 1.0 1.0 0.00 0.00 0.00 93 1020.8
20260830215607 68 227 2.0 2.0 0.00 0.00 0.00 92 1021.2
20260830215101 68 295 1.0 2.0 0.00 0.00 0.00 91 1021.1
20260830214557 69 234 3.0 3.0 0.00 0.00 0.00 90 1020.9
20260830214051 69 194 3.0 3.0 0.00 0.00 0.00 90 1021.0
20260830213545 70 251 1.0 2.0 0.00 0.00 0.00 89 1020.7
20260830213041 70 264 2.0 2.0 0.00 0.00 0.00 89 1020.5
20260830212537 71 318 2.0 2.0 0.00 0.00 0.00 88 1020.7
20260830212031 71 12 0.0 1.0 0.00 0.00 0.00 85 1020.4
20260830211526 72 313 1.0 1.0 0.00 0.00 0.00 83 1020.3
20260830211020 72 223 1.0 2.0 0.00 0.00 0.00 82 1020.4
20260830210520 72 297 1.0 2.0 0.00 0.00 0.00 82 1020.4
20260830210015 72 332 1.0 1.0 0.00 0.00 0.00 82 1020.3
20260830205512 72 309 2.0 2.0 0.00 0.00 0.00 82 1020.2
20260830205009 72 315 2.0 2.0 0.00 0.00 0.00 84 1020.3
20260830204507 73 18 1.0 1.0 0.00 0.00 0.00 87 1020.3
20260830204001 73 353 1.0 1.0 0.00 0.00 0.00 85 1020.4
20260830203458 73 343 1.0 1.0 0.00 0.00 0.00 85 1020.4
20260830202957 73 350 0.0 1.0 0.00 0.00 0.00 82 1020.3
20260830202452 73 325 1.0 1.0 0.00 0.00 0.00 82 1020.3
20260830201948 73 257 2.0 2.0 0.00 0.00 0.00 83 1020.5
20260830201446 73 37 0.0 1.0 0.00 0.00 0.00 85 1020.1
20260830200942 73 320 1.0 1.0 0.00 0.00 0.00 84 1020.1
20260830200437 73 321 1.0 1.0 0.00 0.00 0.00 84 1020.2
20260830195931 74 55 1.0 1.0 0.00 0.00 0.00 84 1020.3
20260830195427 73 345 1.0 1.0 0.00 0.00 0.00 82 1020.2
20260830194925 73 345 1.0 1.0 0.00 0.00 0.00 84 1020.4
20260830194424 73 1 0.0 1.0 0.00 0.00 0.00 86 1020.5
20260830193924 73 110 1.0 1.0 0.00 0.00 0.00 87 1020.4
20260830193423 73 284 2.0 2.0 0.00 0.00 0.00 85 1020.5
20260830192919 73 327 2.0 2.0 0.00 0.00 0.00 83 1020.6
20260830192414 73 32 1.0 1.0 0.00 0.00 0.00 84 1020.5
20260830191909 73 318 1.0 1.0 0.00 0.00 0.00 82 1020.6
20260830191409 74 239 2.0 2.0 0.00 0.00 0.00 82 1020.5
20260830190905 74 264 2.0 2.0 0.00 0.00 0.00 82 1020.4
20260830190400 74 149 1.0 2.0 0.00 0.00 0.00 82 1020.6
20260830185858 74 230 2.0 2.0 0.00 0.00 0.00 81 1020.6
20260830185354 74 232 3.0 5.0 0.00 0.00 0.00 80 1020.8
20260830184849 74 260 2.0 2.0 0.00 0.00 0.00 77 1020.6
20260830184348 74 252 4.0 5.0 0.00 0.00 0.00 77 1020.6
20260830183842 74 230 3.0 3.0 0.00 0.00 0.00 76 1020.5
20260830183336 75 238 2.0 2.0 0.00 0.00 0.00 79 1020.7
20260830182832 75 208 3.0 3.0 0.00 0.00 0.00 81 1021.1
20260830182328 75 157 2.0 3.0 0.00 0.00 0.00 78 1020.9
20260830181824 75 294 2.0 2.0 0.00 0.00 0.00 77 1020.9
20260830181319 75 290 1.0 1.0 0.00 0.00 0.00 76 1021.1
20260830180818 74 350 1.0 2.0 0.00 0.00 0.00 77 1021.1
20260830180313 74 71 1.0 1.0 0.00 0.00 0.00 77 1021.1
20260830175808 75 213 2.0 2.0 0.00 0.00 0.00 75 1021.1
20260830175307 75 225 3.0 3.0 0.00 0.00 0.00 76 1021.1
20260830174803 74 298 1.0 2.0 0.00 0.00 0.00 76 1020.8
20260830174258 75 295 2.0 2.0 0.00 0.00 0.00 79 1021.0
20260830173758 73 14 0.0 0.0 0.00 0.00 0.00 82 1021.1
20260830173253 73 94 2.0 2.0 0.00 0.00 0.00 81 1021.1
20260830172749 74 16 0.0 0.0 0.00 0.00 0.00 81 1021.2
20260830172246 74 148 3.0 3.0 0.00 0.00 0.00 81 1021.2
20260830171741 74 205 3.0 3.0 0.00 0.00 0.00 81 1021.2
20260830171236 74 230 3.0 3.0 0.00 0.00 0.00 80 1021.0
20260830170731 73 208 2.0 2.0 0.00 0.00 0.00 83 1021.3
20260830170230 73 5 0.0 1.0 0.00 0.00 0.00 83 1021.2
20260830165729 73 44 1.0 2.0 0.00 0.00 0.00 84 1021.4
20260830165225 73 19 2.0 2.0 0.00 0.00 0.00 83 1021.4
20260830164721 73 204 2.0 2.0 0.00 0.00 0.00 84 1021.8
20260830164217 72 283 1.0 1.0 0.00 0.00 0.00 84 1021.5
20260830163714 72 260 3.0 3.0 0.00 0.00 0.00 84 1021.7
20260830163209 72 253 3.0 3.0 0.00 0.00 0.00 84 1021.9
20260830162704 72 266 2.0 2.0 0.00 0.00 0.00 84 1021.7
20260830162200 71 319 2.0 2.0 0.00 0.00 0.00 86 1021.9
20260830161654 71 345 1.0 1.0 0.00 0.00 0.00 87 1021.9
20260830161149 71 332 1.0 1.0 0.00 0.00 0.00 87 1022.0
20260830160645 71 219 2.0 2.0 0.00 0.00 0.00 86 1021.8
20260830160139 71 33 1.0 2.0 0.00 0.00 0.00 87 1022.1
20260830155636 71 348 1.0 2.0 0.00 0.00 0.00 87 1022.2
20260830155131 70 265 3.0 3.0 0.00 0.00 0.00 87 1022.3
20260830154626 71 306 2.0 2.0 0.00 0.00 0.00 87 1022.3
20260830154122 71 258 3.0 5.0 0.00 0.00 0.00 86 1022.5
20260830153618 72 279 1.0 2.0 0.00 0.00 0.00 84 1022.3
20260830153113 72 33 1.0 1.0 0.00 0.00 0.00 84 1022.2
20260830152612 71 38 1.0 1.0 0.00 0.00 0.00 86 1022.4
20260830152111 71 16 0.0 1.0 0.00 0.00 0.00 86 1022.4
20260830151606 71 49 1.0 1.0 0.00 0.00 0.00 84 1022.3
20260830151100 71 283 1.0 1.0 0.00 0.00 0.00 83 1022.3
20260830150555 71 11 0.0 0.0 0.00 0.00 0.00 86 1022.2
20260830150050 70 18 0.0 1.0 0.00 0.00 0.00 86 1022.1
20260830145549 70 41 0.0 1.0 0.00 0.00 0.00 84 1022.5
20260830145044 71 96 1.0 1.0 0.00 0.00 0.00 83 1022.1
20260830144540 71 336 1.0 1.0 0.00 0.00 0.00 83 1022.3
20260830144036 72 10 1.0 1.0 0.00 0.00 0.00 81 1022.6
20260830143532 72 56 1.0 1.0 0.00 0.00 0.00 81 1022.3
20260830143029 72 216 2.0 3.0 0.00 0.00 0.00 79 1022.3
20260830142525 71 71 1.0 1.0 0.00 0.00 0.00 84 1022.5
20260830142020 70 75 1.0 1.0 0.00 0.00 0.00 85 1022.6
20260830141515 70 17 0.0 1.0 0.00 0.00 0.00 84 1022.6
20260830141010 70 33 1.0 1.0 0.00 0.00 0.00 82 1022.5
20260830140509 70 350 1.0 1.0 0.00 0.00 0.00 82 1022.8
20260830140005 70 35 1.0 1.0 0.00 0.00 0.00 83 1022.6
20260830135459 70 254 2.0 2.0 0.00 0.00 0.00 80 1022.7
20260830134955 70 348 0.0 1.0 0.00 0.00 0.00 81 1022.6
20260830134450 70 347 1.0 1.0 0.00 0.00 0.00 78 1022.7
20260830133940 70 167 2.0 2.0 0.00 0.00 0.00 78 1022.7
20260830133436 69 50 2.0 3.0 0.00 0.00 0.00 78 1022.7
20260830132931 69 174 3.0 3.0 0.00 0.00 0.00 78 1022.9
20260830132427 68 357 0.0 1.0 0.00 0.00 0.00 81 1022.9
20260830131926 67 164 1.0 1.0 0.00 0.00 0.00 82 1022.9
20260830131425 66 327 1.0 1.0 0.00 0.00 0.00 83 1023.1
20260830130920 66 349 1.0 1.0 0.00 0.00 0.00 84 1023.3
20260830130416 66 19 0.0 0.0 0.00 0.00 0.00 86 1023.5
20260830125914 66 357 0.0 0.0 0.00 0.00 0.00 85 1023.3
20260830125411 66 15 0.0 0.0 0.00 0.00 0.00 86 1023.0
20260830124908 65 15 0.0 0.0 0.00 0.00 0.00 88 1023.2
20260830124403 65 19 0.0 0.0 0.00 0.00 0.00 90 1023.2
20260830123900 64 17 0.0 0.0 0.00 0.00 0.00 93 1023.1
20260830123356 64 16 0.0 0.0 0.00 0.00 0.00 94 1023.5
20260830122854 63 20 0.0 0.0 0.00 0.00 0.00 94 1023.4
20260830122348 62 12 0.0 0.0 0.00 0.00 0.00 95 1023.7
20260830121844 61 13 0.0 0.0 0.00 0.00 0.00 95 1023.4
20260830121343 61 11 0.0 0.0 0.00 0.00 0.00 95 1023.6
20260830120839 61 20 0.0 0.0 0.00 0.00 0.00 95 1023.7
20260830120334 61 23 0.0 0.0 0.00 0.00 0.00 94 1023.5
20260830115830 61 20 0.0 0.0 0.00 0.00 0.00 92 1023.9
20260830115326 60 22 0.0 0.0 0.00 0.00 0.00 93 1024.0
20260830114821 57 29 1.0 1.0 0.00 0.00 0.00 97 1023.7
20260830114318 57 17 1.0 1.0 0.00 0.00 0.00 98 1024.2
20260830113812 56 15 1.0 1.0 0.00 0.00 0.00 99 1024.0
20260830113307 55 14 1.0 1.0 0.00 0.00 0.00 99 1024.0
20260830112758 55 14 0.0 0.0 0.00 0.00 0.00 99 1024.0
20260830112254 55 24 1.0 1.0 0.00 0.00 0.00 99 1023.9
20260830111749 55 15 0.0 1.0 0.00 0.00 0.00 99 1023.9
20260830111244 54 14 1.0 1.0 0.00 0.00 0.00 99 1023.7
20260830110743 54 31 1.0 1.0 0.00 0.00 0.00 99 1024.1
20260830110240 54 26 1.0 1.0 0.00 0.00 0.00 99 1024.1
20260830105739 54 6 0.0 0.0 0.00 0.00 0.00 99 1023.7
20260830105235 54 22 0.0 0.0 0.00 0.00 0.00 99 1024.1
20260830104727 54 20 0.0 0.0 0.00 0.00 0.00 99 1023.7
20260830104223 54 15 0.0 0.0 0.00 0.00 0.00 99 1024.0
20260830103722 55 15 0.0 0.0 0.00 0.00 0.00 99 1024.0
20260830103218 55 17 0.0 0.0 0.00 0.00 0.00 99 1023.9
20260830102715 55 14 0.0 0.0 0.00 0.00 0.00 99 1024.0
20260830102211 55 11 0.0 0.0 0.00 0.00 0.00 99 1023.9
20260830101707 55 18 0.0 0.0 0.00 0.00 0.00 99 1023.7
20260830101202 55 15 1.0 1.0 0.00 0.00 0.00 99 1023.9
20260830100656 55 24 0.0 0.0 0.00 0.00 0.00 99 1024.0
20260830100151 55 18 0.0 0.0 0.00 0.00 0.00 99 1023.7
20260830095650 55 14 0.0 0.0 0.00 0.00 0.00 99 1023.9
20260830095146 55 16 0.0 0.0 0.00 0.00 0.00 99 1023.9
20260830094642 55 21 0.0 0.0 0.00 0.00 0.00 99 1023.9
20260830094137 56 23 0.0 0.0 0.00 0.00 0.00 99 1024.0
20260830093633 55 18 0.0 0.0 0.00 0.00 0.00 99 1023.5
20260830093129 56 17 0.0 1.0 0.00 0.00 0.00 99 1024.0
20260830092623 56 23 0.0 0.0 0.00 0.00 0.00 99 1023.7
20260830092121 56 13 0.0 0.0 0.00 0.00 0.00 99 1024.2
20260830091615 56 15 0.0 0.0 0.00 0.00 0.00 99 1023.9
20260830091114 56 20 0.0 0.0 0.00 0.00 0.00 99 1024.0
20260830090610 56 15 0.0 0.0 0.00 0.00 0.00 99 1023.9
20260830090105 56 11 0.0 1.0 0.00 0.00 0.00 99 1024.1
20260830085604 56 14 0.0 0.0 0.00 0.00 0.00 99 1024.0
20260830085100 56 18 0.0 0.0 0.00 0.00 0.00 99 1024.0
20260830084556 56 20 0.0 0.0 0.00 0.00 0.00 99 1024.2
20260830084055 56 17 0.0 0.0 0.00 0.00 0.00 99 1024.3
20260830083551 57 14 0.0 0.0 0.00 0.00 0.00 99 1024.3
20260830083051 57 14 0.0 1.0 0.00 0.00 0.00 99 1024.2
20260830082552 57 18 0.0 0.0 0.00 0.00 0.00 99 1024.6
20260830082047 57 38 0.0 1.0 0.00 0.00 0.00 99 1024.2
20260830081543 57 34 0.0 1.0 0.00 0.00 0.00 99 1024.3
20260830081042 57 21 0.0 1.0 0.00 0.00 0.00 98 1024.2
20260830080532 56 18 1.0 1.0 0.00 0.00 0.00 98 1024.4
20260830080027 56 44 1.0 1.0 0.00 0.00 0.00 99 1024.4
20260830075526 56 13 1.0 1.0 0.00 0.00 0.00 99 1024.4
20260830075022 56 17 0.0 0.0 0.00 0.00 0.00 99 1024.3
20260830074518 56 16 0.0 0.0 0.00 0.00 0.00 99 1024.4
20260830074014 56 12 0.0 0.0 0.00 0.00 0.00 99 1024.5
20260830073509 56 23 0.0 0.0 0.00 0.00 0.00 99 1024.2
20260830073004 56 16 1.0 1.0 0.00 0.00 0.00 99 1024.3
20260830072459 57 15 0.0 0.0 0.00 0.00 0.00 99 1024.3
20260830071954 56 15 0.0 0.0 0.00 0.00 0.00 99 1024.5
20260830071449 56 22 0.0 0.0 0.00 0.00 0.00 99 1024.4
20260830070947 56 25 1.0 1.0 0.00 0.00 0.00 99 1024.4
20260830070442 56 16 0.0 0.0 0.00 0.00 0.00 99 1024.5
20260830065941 56 21 0.0 1.0 0.00 0.00 0.00 99 1024.3
20260830065436 56 17 1.0 1.0 0.00 0.00 0.00 99 1024.3
20260830064933 55 36 0.0 1.0 0.00 0.00 0.00 99 1024.3
20260830064430 55 32 0.0 1.0 0.00 0.00 0.00 99 1024.3
20260830063929 55 31 0.0 1.0 0.00 0.00 0.00 99 1024.2
20260830063424 55 20 0.0 0.0 0.00 0.00 0.00 99 1024.4
20260830062923 55 10 0.0 0.0 0.00 0.00 0.00 99 1024.2
20260830062422 55 18 0.0 0.0 0.00 0.00 0.00 99 1024.1
20260830061917 55 30 0.0 1.0 0.00 0.00 0.00 99 1024.2
20260830061417 55 13 0.0 0.0 0.00 0.00 0.00 99 1024.3
20260830060914 55 30 0.0 0.0 0.00 0.00 0.00 99 1024.0
20260830060411 55 15 0.0 0.0 0.00 0.00 0.00 99 1024.3
20260830055905 54 17 0.0 0.0 0.00 0.00 0.00 99 1024.2
20260830055401 54 20 0.0 0.0 0.00 0.00 0.00 99 1024.2
20260830054856 54 14 0.0 0.0 0.00 0.00 0.00 99 1024.2
20260830054352 54 17 0.0 0.0 0.00 0.00 0.00 99 1024.2
20260830053848 54 14 0.0 0.0 0.00 0.00 0.00 99 1024.4
20260830053343 54 16 0.0 0.0 0.00 0.00 0.00 99 1024.3
20260830052842 54 16 0.0 0.0 0.00 0.00 0.00 99 1024.4
20260830052338 54 14 0.0 0.0 0.00 0.00 0.00 99 1024.3
20260830051833 54 16 0.0 0.0 0.00 0.00 0.00 99 1024.4
20260830051328 55 13 0.0 0.0 0.00 0.00 0.00 99 1024.5
20260830050827 55 18 0.0 0.0 0.00 0.00 0.00 99 1024.5
20260830050323 55 12 0.0 0.0 0.00 0.00 0.00 99 1024.5
20260830045820 55 26 0.0 0.0 0.00 0.00 0.00 99 1024.4
20260830045316 54 1 0.0 1.0 0.00 0.00 0.00 99 1024.4
20260830044815 54 18 0.0 0.0 0.00 0.00 0.00 99 1024.5
20260830044310 54 20 0.0 0.0 0.00 0.00 0.00 99 1024.6
20260830043805 54 16 0.0 0.0 0.00 0.00 0.00 99 1024.5
20260830043300 54 20 0.0 0.0 0.00 0.00 0.00 99 1024.2
20260830042757 54 12 0.0 0.0 0.00 0.00 0.00 99 1024.3
20260830042252 53 16 0.0 0.0 0.00 0.00 0.00 99 1024.6
20260830041751 53 16 0.0 0.0 0.00 0.00 0.00 99 1024.3
20260830041245 54 14 0.0 0.0 0.00 0.00 0.00 99 1024.4
20260830040741 54 10 0.0 0.0 0.00 0.00 0.00 99 1024.2
20260830040237 54 21 0.0 0.0 0.00 0.00 0.00 99 1024.0
20260830035735 54 14 0.0 0.0 0.00 0.00 0.00 99 1024.1
20260830035230 54 16 0.0 0.0 0.00 0.00 0.00 99 1024.1
20260830034725 54 15 0.0 0.0 0.00 0.00 0.00 99 1024.2
20260830034225 54 16 0.0 0.0 0.00 0.00 0.00 99 1024.2
20260830033721 53 28 1.0 1.0 0.00 0.00 0.00 99 1024.5
20260830033220 53 13 0.0 0.0 0.00 0.00 0.00 99 1024.2
20260830032715 53 17 0.0 0.0 0.00 0.00 0.00 99 1024.4
20260830032210 53 16 0.0 0.0 0.00 0.00 0.00 99 1024.5
20260830031705 53 16 0.0 0.0 0.00 0.00 0.00 99 1024.2
20260830031200 53 16 0.0 0.0 0.00 0.00 0.00 99 1024.3
20260830030656 53 21 0.0 0.0 0.00 0.00 0.00 99 1024.4
20260830030151 53 16 0.0 0.0 0.00 0.00 0.00 99 1024.3
20260830025649 53 16 0.0 0.0 0.00 0.00 0.00 99 1024.4
20260830025144 53 23 0.0 1.0 0.00 0.00 0.00 99 1024.4
20260830024639 53 16 0.0 0.0 0.00 0.00 0.00 99 1024.4
20260830024138 53 14 0.0 0.0 0.00 0.00 0.00 99 1024.7
20260830023636 53 21 0.0 0.0 0.00 0.00 0.00 99 1024.5
20260830023131 54 17 0.0 0.0 0.00 0.00 0.00 99 1024.3
20260830022625 53 14 0.0 0.0 0.00 0.00 0.00 99 1024.5
20260830022121 54 16 0.0 0.0 0.00 0.00 0.00 99 1024.6
20260830021615 54 18 0.0 0.0 0.00 0.00 0.00 99 1024.5
20260830021109 54 5 0.0 0.0 0.00 0.00 0.00 99 1024.6
20260830020603 54 14 0.0 0.0 0.00 0.00 0.00 99 1024.3
20260830020059 54 15 0.0 0.0 0.00 0.00 0.00 99 1024.5
20260830015558 54 12 0.0 0.0 0.00 0.00 0.00 99 1024.5
20260830015055 54 14 0.0 0.0 0.00 0.00 0.00 99 1024.5
20260830014550 55 26 0.0 0.0 0.00 0.00 0.00 99 1024.3
20260830014045 55 18 0.0 0.0 0.00 0.00 0.00 99 1024.4
20260830013541 55 14 0.0 0.0 0.00 0.00 0.00 99 1024.3
20260830013036 55 15 0.0 0.0 0.00 0.00 0.00 99 1024.5
20260830012536 55 15 0.0 0.0 0.00 0.00 0.00 99 1024.3
20260830012033 55 18 0.0 0.0 0.00 0.00 0.00 99 1024.4
20260830011532 55 17 0.0 0.0 0.00 0.00 0.00 99 1024.7
20260830011027 56 15 0.0 0.0 0.00 0.00 0.00 99 1024.6
20260830010522 56 18 0.0 0.0 0.00 0.00 0.00 99 1024.6
20260830010018 56 16 0.0 0.0 0.00 0.00 0.00 99 1024.5